Meteo Giornale » Osservazioni meteo Canada » Halifax
ore: 00:00 - Osservazioni Meteo Halifax
Lat. 44° 53' N Lon. 63° 30' W Alt. 145 metri s.l.m.
13 °C
Nuvoloso
Temp. 24 Ore
13 °C
21 °C
Sud
9.3 Km/h
Dew point 12 °C
Umidità 93 %
Visibilità 24 Km
Il sole sorge alle ore 06:36
Il sole tramonta alle ore 19:51
| Data e Ora | Cielo e Fenomeni | T °C | DP °C | Um. % | Pres. hPa | Vis. km | Vento km/h | |
|---|---|---|---|---|---|---|---|---|
| Oggi h: 00:00 | Nuvoloso | 13 | 12 | 93 | 1017 | 24 | S 9.3 | |
| Ieri h: 23:00 | Nuvoloso | 14 | 12 | 87 | 1017 | 24 | N 5.5 | |
| Ieri h: 22:00 | Molto Nuvoloso | 16 | 11 | 72 | 1017 | 24 | N 5.5 | |
| Ieri h: 21:00 | Nuvoloso | 17 | 11 | 67 | 1017 | 24 | N 5.5 | |
| Ieri h: 20:00 | Poco Nuvoloso | 17 | 11 | 67 | 1016 | 24 | O/NO 11.1 | |
| Ieri h: 19:00 | Poco Nuvoloso | 19 | 11 | 59 | 1016 | 24 | NO 18.5 | |
| Ieri h: 18:00 | Nuvoloso | 20 | 10 | 52 | 1015 | 24 | N/NO 22.2 | |
| Ieri h: 17:00 | Nuvoloso | 21 | 10 | 49 | 1015 | 24 | NO 22.2 | |
| Ieri h: 16:00 | Molto Nuvoloso | 21 | 10 | 49 | 1015 | 24 | O/NO 27.8 | |
| Ieri h: 15:00 | Molto Nuvoloso | 20 | 10 | 52 | 1014 | 24 | N/NO 22.2 | |
| Ieri h: 14:00 | Nuvoloso | 20 | 10 | 52 | 1014 | 24 | N/NO 24 | |
| Ieri h: 13:00 | Poco Nuvoloso | 20 | 9 | 49 | 1014 | 24 | O/NO 27.8 | |
| Ieri h: 12:00 | Poco Nuvoloso | 19 | 10 | 55 | 1014 | 24 | NO 22.2 | |
| Ieri h: 11:00 | Poco Nuvoloso | 18 | 11 | 63 | 1014 | 24 | NO 22.2 | |
| Ieri h: 10:00 | Poco Nuvoloso | 17 | 11 | 67 | 1013 | 24 | NO 24 | |
| Ieri h: 09:00 | Poco Nuvoloso | 16 | 13 | 82 | 1013 | 24 | NO 25.9 | |
| Ieri h: 08:00 | Nuvoloso | 15 | 15 | 100 | 1013 | 24 | NO 25.9 | |
| Ieri h: 07:00 | Poco Nuvoloso | 14 | 14 | 100 | 1012 | 24 | O/NO 14.8 | |
| Ieri h: 06:00 | Molto Nuvoloso | 15 | 15 | 100 | 1011 | 24 | NO 20.3 | |
| Ieri h: 05:00 | Coperto | 15 | 15 | 100 | 1011 | 24 | NO 14.8 | |
| Ieri h: 04:00 | Pioggia | 15 | 15 | 100 | 1011 | 24 | O 11.1 | |
| Ieri h: 03:00 | Coperto | 15 | 15 | 100 | 1011 | 24 | O/NO 13 | |
| Ieri h: 02:00 | Pioggia | 16 | 16 | 100 | 1011 | 24 | NO 16.7 | |
| Ieri h: 01:47 | Pioggia | 17 | 17 | 100 | 1011 | 24 | NO 22.2 | |
| Ieri h: 01:00 | Pioggia | 17 | 17 | 100 | 1011 | 24 | NO 13 | |



